Year,Month,Day,Hour,Minute,Value (Times are PST for temperature in C)
2013,02,24,13,44,6.80
2013,02,24,13,45,6.80
2013,02,24,13,46,6.80
2013,02,24,13,47,6.80
2013,02,24,13,48,6.90
2013,02,24,13,49,7.00
2013,02,24,13,50,7.00
2013,02,24,13,51,7.00
2013,02,24,13,52,7.00
2013,02,24,13,53,7.00
2013,02,24,13,54,7.00
2013,02,24,13,55,7.10
2013,02,24,13,56,7.10
2013,02,24,13,57,7.10
2013,02,24,13,58,7.20
2013,02,24,13,59,7.20
2013,02,24,14,00,7.20
2013,02,24,14,01,7.20
2013,02,24,14,02,7.20
2013,02,24,14,03,7.20
2013,02,24,14,04,7.20
2013,02,24,14,05,7.20
2013,02,24,14,06,7.20
2013,02,24,14,07,7.20
2013,02,24,14,08,7.20
2013,02,24,14,09,7.20
2013,02,24,14,10,7.20
2013,02,24,14,11,7.20
2013,02,24,14,12,7.20
2013,02,24,14,13,7.20
2013,02,24,14,14,7.20
2013,02,24,14,15,7.20
2013,02,24,14,16,7.20
2013,02,24,14,17,7.20
2013,02,24,14,18,7.20
2013,02,24,14,19,7.20
2013,02,24,14,20,7.20
2013,02,24,14,21,7.20
2013,02,24,14,22,7.20
2013,02,24,14,23,7.20
2013,02,24,14,24,7.20
2013,02,24,14,25,7.20
2013,02,24,14,26,7.20
2013,02,24,14,27,7.20
2013,02,24,14,28,7.20
2013,02,24,14,29,7.20
2013,02,24,14,30,7.20
2013,02,24,14,31,7.20
2013,02,24,14,32,7.20
2013,02,24,14,33,7.20
2013,02,24,14,34,7.30
2013,02,24,14,35,7.30
2013,02,24,14,36,7.30
2013,02,24,14,37,7.30
2013,02,24,14,38,7.30
2013,02,24,14,39,7.30
2013,02,24,14,40,7.30
2013,02,24,14,41,7.30
2013,02,24,14,42,7.30
2013,02,24,14,43,7.30
2013,02,24,14,44,7.30
2013,02,24,14,45,7.30
2013,02,24,14,46,7.40
2013,02,24,14,47,7.40
2013,02,24,14,48,7.40
2013,02,24,14,49,7.40
2013,02,24,14,50,7.40
2013,02,24,14,51,7.40
2013,02,24,14,52,7.40
2013,02,24,14,53,7.30
2013,02,24,14,54,7.30
2013,02,24,14,55,7.40
2013,02,24,14,56,7.40
2013,02,24,14,57,7.30
2013,02,24,14,58,7.40
2013,02,24,14,59,7.40
2013,02,24,15,00,7.30
2013,02,24,15,01,7.30
2013,02,24,15,02,7.30
2013,02,24,15,03,7.30
2013,02,24,15,04,7.40
2013,02,24,15,05,7.40
2013,02,24,15,06,7.40
2013,02,24,15,07,7.40
2013,02,24,15,08,7.40
2013,02,24,15,09,7.30
2013,02,24,15,10,7.30
2013,02,24,15,11,7.30
2013,02,24,15,12,7.30
2013,02,24,15,13,7.30
2013,02,24,15,14,7.30
2013,02,24,15,15,7.30
2013,02,24,15,16,7.30
2013,02,24,15,17,7.40
2013,02,24,15,18,7.40
2013,02,24,15,19,7.40
2013,02,24,15,20,7.40
2013,02,24,15,21,7.40
2013,02,24,15,22,7.30
2013,02,24,15,23,7.40
2013,02,24,15,24,7.30
2013,02,24,15,25,7.40
2013,02,24,15,26,7.40
2013,02,24,15,27,7.40
2013,02,24,15,28,7.40
2013,02,24,15,29,7.40
2013,02,24,15,30,7.40
2013,02,24,15,31,7.40
2013,02,24,15,32,7.40
2013,02,24,15,33,7.40
2013,02,24,15,34,7.40
2013,02,24,15,35,7.40
2013,02,24,15,36,7.40
2013,02,24,15,37,7.40
2013,02,24,15,38,7.40
2013,02,24,15,39,7.40
2013,02,24,15,40,7.40
2013,02,24,15,41,7.50
2013,02,24,15,42,7.50
2013,02,24,15,43,7.50
2013,02,24,15,44,7.50
2013,02,24,15,45,7.50
2013,02,24,15,46,7.50
2013,02,24,15,47,7.50
2013,02,24,15,48,7.50
2013,02,24,15,49,7.50
2013,02,24,15,50,7.50
2013,02,24,15,51,7.40
2013,02,24,15,52,7.40
2013,02,24,15,53,7.40
2013,02,24,15,54,7.40
2013,02,24,15,55,7.40
2013,02,24,15,56,7.40
2013,02,24,15,57,7.40
2013,02,24,15,58,7.40
2013,02,24,15,59,7.40
2013,02,24,16,00,7.40
2013,02,24,16,01,7.40
2013,02,24,16,02,7.40
